Regional Weather Roundup
Issued by NWS

Home | Current Version | Previous Version | Text Only | Print | Product List | Glossary Off
Versions: 1 2 3 4 5 6 7 8 9 10 11 12 13 14 15 16 17 18 19 20 21 22 23 24 25 26 27 28 29 30 31 32 33 34 35 36 37 38 39 40 41 42 43 44 45 46 47 48 49 50

000
ASUS43 KDMX 181901
RWRIA

WEATHER ROUNDUP FOR IOWA
NATIONAL WEATHER SERVICE DES MOINES IA
100 PM CST THU JAN 18 2018

NOTE: "FAIR" INDICATES FEW OR NO CLOUDS BELOW 12,000 FEET WITH NO
SIGNIFICANT WEATHER AND/OR OBSTRUCTIONS TO VISIBILITY.

* - THESE STATIONS ARE NOT NWS STATIONS...THUS NOT UNDER NWS
QUALITY CONTROL.  THEY ALSO DO NOT REPORT WEATHER SUCH
AS PRECIPITATION OR FOG.

IAZ001>003-012>014-020>022-031>034-043>046-182000-
   NORTHWEST IOWA

CITY           SKY/WX    TMP DP  RH WIND       PRES   REMARKS
CARROLL *      SUNNY     34  21  60 SW18G25   29.96F WCI  23
CHEROKEE *     CLOUDY    38  22  54 SW13      29.91F WCI  30
DENISON *      SUNNY     36  19  51 SW14G20   29.97F WCI  27
LE MARS *      CLOUDY    37  23  56 S17       29.89F WCI  28
ORANGE CITY *  CLOUDY    37  27  65 SW13      29.88F WCI  29
SHELDON *      CLOUDY    37  25  60 S13G20    29.85F WCI  29
SIOUX CITY     CLOUDY    41  25  53 SW12      29.93F
SPENCER        CLOUDY    39  26  59 SW12      29.88F WCI  32
STORM LAKE *   MIX PCPN  37  23  56 SW20      29.90F WCI  27
$$

IAZ055>058-069>071-079>083-090>094-182000-
   SOUTHWEST IOWA

CITY           SKY/WX    TMP DP  RH WIND       PRES   REMARKS
ATLANTIC *     SUNNY     30  18  59 SW15      30.02F WCI  19
AUDUBON *      SUNNY     32  19  59 SW13G18   30.00F WCI  22
CLARINDA *     SUNNY     30  18  59 SW10        N/A  WCI  21
COUNCIL BLFS * SUNNY     30  19  64 S13       30.00F WCI  20
CRESTON *      SUNNY     30  18  59 SW14      30.04F WCI  20
HARLAN  *      SUNNY     28  18  64 S15       30.03F WCI  17
LAMONI         SUNNY     32  17  54 SW17      30.07F WCI  21
RED OAK *      SUNNY     32  19  59 S16       30.05F WCI  21
SHENANDOAH *   SUNNY     32  19  59 SW13      30.08F WCI  22
$$

IAZ047>049-059>061-072>074-084-182000-
   CENTRAL IOWA

CITY           SKY/WX    TMP DP  RH WIND       PRES   REMARKS
AMES           SUNNY     32  21  64 SW13      30.01F WCI  22
ANKENY *       SUNNY     36  16  44 SW13G20   30.03F WCI  27
BOONE *        SUNNY     34  19  55 SW15      29.98F WCI  24
CHARITON *     SUNNY     32  16  51 SW15G22   30.06F WCI  22
DES MOINES     MOSUNNY   33  17  51 SW16      30.02F WCI  23
GRINNELL*      SUNNY     30  18  60 SW15      30.04F WCI  19
KNOXVILLE *    SUNNY     32  14  47 SW14G20   30.03F WCI  22
MARSHALLTOWN   SUNNY     33  20  58 SW14      30.00F WCI  23
NEWTON *       SUNNY     32  18  55 SW14      30.03F WCI  22
PELLA *        SUNNY     33  16  48 SW13      30.06F WCI  24
PERRY *          N/A     34  20  56 SW17      30.00F WCI  23
$$

IAZ004>006-015-016-023>025-035-036-182000-
   NORTH CENTRAL IOWA

CITY           SKY/WX    TMP DP  RH WIND       PRES   REMARKS
ALGONA *       SUNNY     34 N/A N/A SW16      29.89F WCI  23
CLARION *      SUNNY     30  25  80 SW18      29.93F WCI  18
ESTHERVILLE    SUNNY     37  27  67 SW16      29.85F WCI  28
FORT DODGE *   SUNNY     33  20  58 SW12      29.95F WCI  24
MASON CITY     SUNNY     33  23  66 SW14      29.91F WCI  23
FOREST CITY *    N/A     32  27  80 SW15      29.89F WCI  22
WEBSTER CITY * SUNNY     32  21  64 SW16      29.94F WCI  21
IOWA FALLS *     N/A     32  22  66 SW14      29.99F HAZE    WCI  22
$$

IAZ007>011-017>019-026>030-037>042-050>054-066-182000-
   NORTHEAST IOWA

CITY           SKY/WX    TMP DP  RH WIND       PRES   REMARKS
CEDAR RAPIDS     N/A     32  18  56 SW12      30.02F WCI  23
CHARLES CITY *   N/A     32  23  69 S14       29.92F WCI  22
CLINTON *        N/A     31  20  63 SW18      30.05F WCI  19
DECORAH *        N/A     32  21  64 SW9G17    29.90F WCI  24
DUBUQUE          N/A     28  17  63 SW18      29.98F WCI  15
MONTICELLO *     N/A     32  19  59 SW9G16    30.01F WCI  24
OELWEIN *        N/A     30  23  74 SW15      29.97F WCI  19
WATERLOO         N/A     32  19  58 SW16      29.98F WCI  21
$$

IAZ064-065-067-068-078-182000-
   EAST CENTRAL IOWA

CITY           SKY/WX    TMP DP  RH WIND       PRES   REMARKS
DAVENPORT        N/A     32  16  51 SW16      30.07F WCI  21
IOWA CITY        N/A     32  16  51 S10       30.07F WCI  24
MT. PLEASANT * SUNNY     32  18  55 SW15      30.10F WCI  22
MUSCATINE *      N/A     32  18  55 SW9       30.09F WCI  24
QUAD CITIES      N/A     31  17  56 SW13      30.07F WCI  21
$$

IAZ062-063-075>077-085>089-095>099-182000-
   SOUTHEAST IOWA

CITY           SKY/WX    TMP DP  RH WIND       PRES   REMARKS
BURLINGTON     SUNNY     32  18  56 SW16      30.09F WCI  21
FAIRFIELD *    SUNNY     34  18  51 SW12      30.07F WCI  25
FORT MADISON * SUNNY     34  18  51 SW14G21   30.11F WCI  24
KEOKUK *       SUNNY     34  16  47 SW18      30.11F WCI  23
OSKALOOSA *      N/A     32  19  58 SW14      30.06F WCI  22
OTTUMWA        SUNNY     34  17  50 SW15      30.06F WCI  24
WASHINGTON *   SUNNY     32  19  59 SW16      30.07F WCI  21
$$

ABBREVIATIONS USED IN REMARKS
   TC - TEMPERATURES IN CELSIUS
  WCI - WIND CHILL INDEX
   HX - HEAT INDEX
  VSB - VISIBILITY
$$




USA.gov is the U.S. government's official web portal to all federal, state and local government web resources and services.